Time,TemperatureF,DewpointF,PressureIn,WindDirection,WindDirectionDegrees,WindSpeedMPH,WindSpeedGustMPH,Humidity,HourlyPrecipIn,Conditions,Clouds,dailyrainin,SoftwareType,DateUTC
2013-01-18 00:00:00,35.0,32.0,30.21,NW,311,0.0,-999.0,87,-99.99,,,0.00,weatherlink.com 1.10,2013-01-18 08:00:00,
2013-01-18 00:15:00,34.5,32.0,30.22,NW,311,0.0,-999.0,89,-99.99,,,0.00,weatherlink.com 1.10,2013-01-18 08:15:00,
2013-01-18 00:30:00,34.3,31.0,30.22,NW,311,0.0,-999.0,87,-99.99,,,0.00,weatherlink.com 1.10,2013-01-18 08:30:00,
2013-01-18 00:45:00,34.0,31.0,30.22,NW,311,0.0,-999.0,89,-99.99,,,0.00,weatherlink.com 1.10,2013-01-18 08:45:00,
2013-01-18 01:00:00,34.0,31.0,30.22,NW,311,0.0,-999.0,90,-99.99,,,0.00,weatherlink.com 1.10,2013-01-18 09:00:00,
2013-01-18 01:15:00,34.0,31.0,30.22,NW,311,0.0,-999.0,90,-99.99,,,0.00,weatherlink.com 1.10,2013-01-18 09:15:00,
2013-01-18 01:30:00,33.8,31.0,30.22,NW,311,0.0,-999.0,89,-99.99,,,0.00,weatherlink.com 1.10,2013-01-18 09:30:00,
2013-01-18 01:45:00,33.6,31.0,30.22,NW,311,0.0,-999.0,90,-99.99,,,0.00,weatherlink.com 1.10,2013-01-18 09:45:00,
2013-01-18 02:15:00,32.9,30.0,30.22,NW,311,0.0,-999.0,90,-99.99,,,0.00,weatherlink.com 1.10,2013-01-18 10:15:00,
2013-01-18 02:30:00,32.7,30.0,30.21,NW,311,0.0,-999.0,90,-99.99,,,0.00,weatherlink.com 1.10,2013-01-18 10:30:00,
2013-01-18 02:45:00,32.5,30.0,30.22,NW,311,0.0,-999.0,90,-99.99,,,0.00,weatherlink.com 1.10,2013-01-18 10:45:00,
2013-01-18 03:00:00,32.1,30.0,30.22,NW,311,0.0,-999.0,91,-99.99,,,0.00,weatherlink.com 1.10,2013-01-18 11:00:00,
2013-01-18 03:15:00,32.1,30.0,30.21,NW,311,0.0,-999.0,91,-99.99,,,0.00,weatherlink.com 1.10,2013-01-18 11:15:00,
2013-01-18 03:30:00,31.6,29.0,30.22,NW,311,0.0,-999.0,89,-99.99,,,0.00,weatherlink.com 1.10,2013-01-18 11:30:00,
2013-01-18 03:45:00,31.7,30.0,30.22,NW,311,0.0,-999.0,92,-99.99,,,0.00,weatherlink.com 1.10,2013-01-18 11:45:00,
2013-01-18 04:00:00,31.9,30.0,30.22,NW,311,0.0,-999.0,91,-99.99,,,0.00,weatherlink.com 1.10,2013-01-18 12:00:00,
2013-01-18 04:15:00,31.5,29.0,30.22,NW,311,0.0,-999.0,90,-99.99,,,0.00,weatherlink.com 1.10,2013-01-18 12:15:00,
2013-01-18 04:30:00,30.7,28.0,30.22,NW,311,0.0,-999.0,91,-99.99,,,0.00,weatherlink.com 1.10,2013-01-18 12:30:00,
2013-01-18 04:45:00,30.8,29.0,30.21,NW,311,0.0,-999.0,92,-99.99,,,0.00,weatherlink.com 1.10,2013-01-18 12:45:00,
2013-01-18 05:15:00,30.5,29.0,30.21,NW,311,0.0,-999.0,92,-99.99,,,0.00,weatherlink.com 1.10,2013-01-18 13:15:00,
2013-01-18 05:30:00,30.6,28.0,30.21,NW,311,0.0,-999.0,91,-99.99,,,0.00,weatherlink.com 1.10,2013-01-18 13:30:00,
2013-01-18 05:45:00,30.6,29.0,30.21,NW,311,0.0,-999.0,92,-99.99,,,0.00,weatherlink.com 1.10,2013-01-18 13:45:00,
2013-01-18 06:00:00,30.5,28.0,30.21,NW,311,0.0,-999.0,91,-99.99,,,0.00,weatherlink.com 1.10,2013-01-18 14:00:00,
2013-01-18 06:15:00,30.5,28.0,30.21,NW,311,0.0,-999.0,91,-99.99,,,0.00,weatherlink.com 1.10,2013-01-18 14:15:00,
2013-01-18 06:30:00,30.3,28.0,30.21,NW,311,0.0,-999.0,91,-99.99,,,0.00,weatherlink.com 1.10,2013-01-18 14:30:00,
2013-01-18 06:45:00,30.1,28.0,30.22,NW,311,0.0,-999.0,92,-99.99,,,0.00,weatherlink.com 1.10,2013-01-18 14:45:00,
2013-01-18 07:00:00,30.1,28.0,30.22,NW,311,0.0,-999.0,92,-99.99,,,0.00,weatherlink.com 1.10,2013-01-18 15:00:00,
2013-01-18 07:15:00,30.0,28.0,30.23,NW,311,0.0,-999.0,91,-99.99,,,0.00,weatherlink.com 1.10,2013-01-18 15:15:00,
2013-01-18 07:30:00,29.6,27.0,30.23,NW,311,0.0,-999.0,91,-99.99,,,0.00,weatherlink.com 1.10,2013-01-18 15:30:00,
2013-01-18 07:45:00,30.1,28.0,30.24,NW,311,0.0,-999.0,92,-99.99,,,0.00,weatherlink.com 1.10,2013-01-18 15:45:00,
2013-01-18 08:00:00,30.7,29.0,30.24,NW,311,0.0,-999.0,92,-99.99,,,0.00,weatherlink.com 1.10,2013-01-18 16:00:00,
2013-01-18 08:15:00,32.3,30.0,30.24,NW,311,0.0,-999.0,92,-99.99,,,0.00,weatherlink.com 1.10,2013-01-18 16:15:00,
2013-01-18 08:31:00,35.8,33.0,30.25,NW,311,0.0,-999.0,88,-99.99,,,0.00,weatherlink.com 1.10,2013-01-18 16:31:00,
2013-01-18 08:45:00,37.3,34.0,30.25,NW,311,0.0,-999.0,86,-99.99,,,0.00,weatherlink.com 1.10,2013-01-18 16:45:00,
2013-01-18 09:00:00,38.7,35.0,30.25,NW,311,0.0,-999.0,85,-99.99,,,0.00,weatherlink.com 1.10,2013-01-18 17:00:00,
2013-01-18 09:16:00,40.6,36.0,30.26,NW,311,0.0,-999.0,84,-99.99,,,0.00,weatherlink.com 1.10,2013-01-18 17:16:00,
2013-01-18 09:30:00,43.2,36.0,30.26,NW,311,0.0,-999.0,76,-99.99,,,0.00,weatherlink.com 1.10,2013-01-18 17:30:00,
2013-01-18 09:45:00,45.8,37.0,30.26,NW,311,0.0,-999.0,70,-99.99,,,0.00,weatherlink.com 1.10,2013-01-18 17:45:00,
2013-01-18 10:00:00,47.9,37.0,30.26,NW,311,0.0,-999.0,65,-99.99,,,0.00,weatherlink.com 1.10,2013-01-18 18:00:00,
2013-01-18 10:15:00,49.8,37.0,30.26,NW,311,0.0,-999.0,62,-99.99,,,0.00,weatherlink.com 1.10,2013-01-18 18:15:00,
2013-01-18 10:30:00,52.4,37.0,30.26,NW,311,0.0,-999.0,57,-99.99,,,0.00,weatherlink.com 1.10,2013-01-18 18:30:00,
2013-01-18 10:45:00,54.6,38.0,30.25,NW,311,0.0,-999.0,54,-99.99,,,0.00,weatherlink.com 1.10,2013-01-18 18:45:00,
2013-01-18 11:00:00,55.2,36.0,30.25,NW,311,0.0,-999.0,49,-99.99,,,0.00,weatherlink.com 1.10,2013-01-18 19:00:00,
2013-01-18 11:15:00,55.4,37.0,30.24,NW,311,0.0,-999.0,50,-99.99,,,0.00,weatherlink.com 1.10,2013-01-18 19:15:00,
2013-01-18 11:31:00,55.3,37.0,30.24,NW,311,4.0,-999.0,50,-99.99,,,0.00,weatherlink.com 1.10,2013-01-18 19:31:00,
2013-01-18 11:45:00,56.1,38.0,30.23,NW,311,0.0,-999.0,52,-99.99,,,0.00,weatherlink.com 1.10,2013-01-18 19:45:00,
2013-01-18 12:00:00,57.3,38.0,30.22,NW,311,4.0,-999.0,48,-99.99,,,0.00,weatherlink.com 1.10,2013-01-18 20:00:00,
2013-01-18 12:16:00,57.6,35.0,30.21,NW,311,0.0,-999.0,43,-99.99,,,0.00,weatherlink.com 1.10,2013-01-18 20:16:00,
2013-01-18 12:31:00,57.8,35.0,30.20,NW,311,1.0,-999.0,42,-99.99,,,0.00,weatherlink.com 1.10,2013-01-18 20:31:00,
2013-01-18 12:46:00,58.8,36.0,30.20,NW,311,6.0,-999.0,43,-99.99,,,0.00,weatherlink.com 1.10,2013-01-18 20:46:00,
2013-01-18 13:01:00,59.8,36.0,30.19,NW,311,1.0,-999.0,42,-99.99,,,0.00,weatherlink.com 1.10,2013-01-18 21:01:00,
2013-01-18 13:31:00,62.0,37.0,30.18,NW,311,0.0,-999.0,39,-99.99,,,0.00,weatherlink.com 1.10,2013-01-18 21:31:00,
2013-01-18 13:46:00,63.7,36.0,30.18,NW,311,0.0,-999.0,36,-99.99,,,0.00,weatherlink.com 1.10,2013-01-18 21:46:00,
2013-01-18 14:01:00,63.6,35.0,30.18,NW,311,4.0,-999.0,35,-99.99,,,0.00,weatherlink.com 1.10,2013-01-18 22:01:00,
2013-01-18 14:16:00,64.2,35.0,30.17,NW,311,5.0,-999.0,34,-99.99,,,0.00,weatherlink.com 1.10,2013-01-18 22:16:00,
2013-01-18 14:31:00,65.0,36.0,30.17,NW,311,2.0,-999.0,34,-99.99,,,0.00,weatherlink.com 1.10,2013-01-18 22:31:00,
2013-01-18 14:46:00,64.8,37.0,30.17,NW,311,1.0,-999.0,36,-99.99,,,0.00,weatherlink.com 1.10,2013-01-18 22:46:00,
2013-01-18 15:01:00,64.3,37.0,30.17,NW,310,6.0,-999.0,36,-99.99,,,0.00,weatherlink.com 1.10,2013-01-18 23:01:00,
2013-01-18 15:16:00,64.7,38.0,30.16,NW,310,7.0,-999.0,37,-99.99,,,0.00,weatherlink.com 1.10,2013-01-18 23:16:00,
2013-01-18 15:31:00,64.7,36.0,30.16,NW,310,4.0,-999.0,35,-99.99,,,0.00,weatherlink.com 1.10,2013-01-18 23:31:00,
2013-01-18 15:46:00,64.3,36.0,30.16,NW,310,2.0,-999.0,35,-99.99,,,0.00,weatherlink.com 1.10,2013-01-18 23:46:00,
2013-01-18 16:01:00,63.2,36.0,30.16,NW,310,0.0,-999.0,37,-99.99,,,0.00,weatherlink.com 1.10,2013-01-19 00:01:00,
2013-01-18 16:16:00,61.6,34.0,30.16,NW,309,0.0,-999.0,36,-99.99,,,0.00,weatherlink.com 1.10,2013-01-19 00:16:00,
2013-01-18 16:31:00,60.3,36.0,30.16,NW,310,0.0,-999.0,40,-99.99,,,0.00,weatherlink.com 1.10,2013-01-19 00:31:00,
2013-01-18 16:46:00,59.2,35.0,30.16,NW,310,0.0,-999.0,41,-99.99,,,0.00,weatherlink.com 1.10,2013-01-19 00:46:00,
2013-01-18 17:01:00,57.8,36.0,30.16,NW,310,0.0,-999.0,45,-99.99,,,0.00,weatherlink.com 1.10,2013-01-19 01:01:00,
2013-01-18 17:16:00,56.2,36.0,30.16,NW,310,0.0,-999.0,47,-99.99,,,0.00,weatherlink.com 1.10,2013-01-19 01:16:00,
2013-01-18 17:31:00,54.4,36.0,30.16,NW,310,0.0,-999.0,51,-99.99,,,0.00,weatherlink.com 1.10,2013-01-19 01:31:00,
2013-01-18 17:46:00,52.9,36.0,30.17,NW,310,0.0,-999.0,54,-99.99,,,0.00,weatherlink.com 1.10,2013-01-19 01:46:00,
2013-01-18 18:01:00,51.5,37.0,30.16,NW,310,0.0,-999.0,57,-99.99,,,0.00,weatherlink.com 1.10,2013-01-19 02:01:00,
2013-01-18 18:16:00,49.9,37.0,30.16,NW,310,0.0,-999.0,62,-99.99,,,0.00,weatherlink.com 1.10,2013-01-19 02:16:00,
2013-01-18 18:31:00,48.4,36.0,30.17,NW,310,0.0,-999.0,63,-99.99,,,0.00,weatherlink.com 1.10,2013-01-19 02:31:00,
2013-01-18 18:46:00,47.2,36.0,30.17,NW,310,0.0,-999.0,65,-99.99,,,0.00,weatherlink.com 1.10,2013-01-19 02:46:00,
2013-01-18 19:01:00,45.8,36.0,30.17,NW,310,0.0,-999.0,68,-99.99,,,0.00,weatherlink.com 1.10,2013-01-19 03:01:00,
2013-01-18 19:16:00,44.5,36.0,30.17,NW,310,0.0,-999.0,71,-99.99,,,0.00,weatherlink.com 1.10,2013-01-19 03:16:00,
2013-01-18 19:31:00,43.4,35.0,30.17,NW,310,0.0,-999.0,73,-99.99,,,0.00,weatherlink.com 1.10,2013-01-19 03:31:00,
2013-01-18 19:46:00,42.5,35.0,30.17,NW,310,0.0,-999.0,76,-99.99,,,0.00,weatherlink.com 1.10,2013-01-19 03:46:00,
2013-01-18 20:01:00,41.8,35.0,30.17,NW,310,0.0,-999.0,78,-99.99,,,0.00,weatherlink.com 1.10,2013-01-19 04:01:00,
2013-01-18 20:16:00,41.0,35.0,30.17,NW,310,0.0,-999.0,79,-99.99,,,0.00,weatherlink.com 1.10,2013-01-19 04:16:00,
2013-01-18 20:31:00,40.5,35.0,30.17,NW,310,0.0,-999.0,80,-99.99,,,0.00,weatherlink.com 1.10,2013-01-19 04:31:00,
2013-01-18 20:46:00,40.0,34.0,30.17,NW,310,0.0,-999.0,80,-99.99,,,0.00,weatherlink.com 1.10,2013-01-19 04:46:00,
2013-01-18 21:01:00,39.5,34.0,30.18,NW,310,0.0,-999.0,81,-99.99,,,0.00,weatherlink.com 1.10,2013-01-19 05:01:00,
2013-01-18 21:16:00,39.2,34.0,30.17,NW,310,0.0,-999.0,81,-99.99,,,0.00,weatherlink.com 1.10,2013-01-19 05:16:00,
2013-01-18 21:31:00,38.4,33.0,30.18,NW,310,0.0,-999.0,81,-99.99,,,0.00,weatherlink.com 1.10,2013-01-19 05:31:00,
2013-01-18 21:46:00,38.0,33.0,30.18,NW,310,0.0,-999.0,83,-99.99,,,0.00,weatherlink.com 1.10,2013-01-19 05:46:00,
2013-01-18 22:16:00,37.7,33.0,30.18,NW,309,0.0,-999.0,84,-99.99,,,0.00,weatherlink.com 1.10,2013-01-19 06:16:00,
2013-01-18 22:31:00,37.4,33.0,30.18,NW,310,0.0,-999.0,84,-99.99,,,0.00,weatherlink.com 1.10,2013-01-19 06:31:00,
2013-01-18 22:46:00,37.2,33.0,30.18,NW,310,0.0,-999.0,85,-99.99,,,0.00,weatherlink.com 1.10,2013-01-19 06:46:00,
2013-01-18 23:01:00,37.0,33.0,30.19,NW,310,0.0,-999.0,85,-99.99,,,0.00,weatherlink.com 1.10,2013-01-19 07:01:00,
2013-01-18 23:16:00,36.8,33.0,30.18,NW,310,0.0,-999.0,85,-99.99,,,0.00,weatherlink.com 1.10,2013-01-19 07:16:00,
2013-01-18 23:31:00,36.3,32.0,30.19,NW,310,0.0,-999.0,85,-99.99,,,0.00,weatherlink.com 1.10,2013-01-19 07:31:00,
2013-01-18 23:46:00,36.2,32.0,30.18,NW,310,0.0,-999.0,86,-99.99,,,0.00,weatherlink.com 1.10,2013-01-19 07:46:00,